Погода в Песчаном

Россия / Республика Карелия     62°09′38″N   35°47′33″E
темп.,
°C
ветер,
м/с
пор.,
м/с
влажн.,
%
обл.,
%
осадки,
мм/ч
давл.,
гПа
погр.,
м
15 апреля, чт
чт1500:00−1ссз3688100 0.0 102492
03:00−2ссз229216 0.0 102644
06:00−3с22955 0.0 102736
09:000с24824 0.0 1029165
12:00+3с34690 0.0 1030251
15:00+3с34680 0.0 1031242
18:00+3с23731 0.0 103159
21:000ссв11820 0.0 103210
16 апреля, пт
пт1600:00−1св11840 0.0 103310
03:00−2св11830 0.0 103310
06:00−2св11850 0.0 103310
09:00+2ссв11740 0.0 103481
12:00+4с23660 0.0 1034204
15:00+4с23680 0.0 1034182
18:00+4с23761 0.0 103454
21:00+2св35840 0.0 103553
17 апреля, сб
сб1700:000св23860 0.0 103630
03:00−1всв22880 0.0 103617
06:00−1всв22891 0.0 103713
09:00+3св12785 0.0 103789
12:00+4ссз11695 0.0 1036195
15:00+5ссз22655 0.0 1035212
18:00+4с12685 0.0 103458
21:00+2ссз11715 0.0 103410
18 апреля, вс
вс1800:00+1ссв117354 0.0 103510
03:00+1ссв117862 0.0 103510
06:000ссв11828 0.0 103510
09:00+3ссв11770 0.0 103574
12:00+5ссз11710 0.0 1035248
15:00+5сз11695 0.0 1035362
18:00+4сз12745 0.0 1034124
21:00+2в017949 0.0 103510
19 апреля, пн
пн1900:00+3в22815 0.0 103515
03:00+1юв239324 0.0 103527
06:00+1юв22935 0.0 103520
09:00+3ююв23855 0.0 1035104
12:00+4ююз23815 0.0 1035296
15:00+3юз248263 0.0 1034277
18:00+4ю237897 0.0 1033132
21:00+4ююв237942 0.0 103226